User: anonymous   Login
Location: Hartman Creek State Park
(44.3257°N, 89.2134°W)
Time: 10:51:50
(UTC-05:00)
Language:

BREEZE-M DEB (TANK) - Orbit

View from above orbital plane
View from above orbital plane
View from above satellite
View from above satellite

Ground track
Ground track

The orbit data is extracted from the following two-line orbital elements,

1 29649U 06056B   15214.90976359  .00002291  00000-0  58209-3 0  9999
2 29649 049.5059 012.9678 5383865 095.3812 018.8234 04.97095381153655
Epoch (UTC): 02 August 2015 21:50:03
Eccentricity: 0.5383865
inclination: 49.5059°
perigee height: 316 km
apogee height: 15932 km
right ascension of ascending node: 12.9678°
argument of perigee: 95.3812°
revolutions per day: 4.97095381
mean anomaly at epoch: 18.8234°
orbit number at epoch: 15365

The dashed part of the orbit path shows where the satellite is in the earth's shadow,  

DLR